[Date Prev][Date Next][Thread Prev][Thread Next] - [Date Index][Thread Index][Author Index]

2 Line ISS Keps 3-22



ISS
1 25544U 98067A   04082.38644088  .00022281  00000-0  20848-3 0  4181
2 25544  51.6293  47.9460 0010538 307.0545 190.5927 15.67106398304690


----
Via the sarex mailing list at AMSAT.ORG courtesy of AMSAT-NA.
To unsubscribe, send "unsubscribe sarex" to Majordomo@amsat.org



AMSAT Top AMSAT Home